| time (UTC) | temp C | wind direction | speed KPH | gust KPH | rain 1hr cm | rain 24hr cm | rain mn cm | humidity % | barometer mb |
| 20260508121759 | 9 | 152 | 6.4 | 14.5 | 0.00 | 0.08 | 0.05 | 53 | 1023.6 |
| 20260508120859 | 9 | 175 | 4.8 | 11.3 | 0.00 | 0.08 | 0.05 | 52 | 1023.6 |
| 20260508115959 | 9 | 163 | 4.8 | 11.3 | 0.00 | 0.08 | 0.05 | 54 | 1023.6 |
| 20260508115059 | 9 | 170 | 4.8 | 11.3 | 0.00 | 0.08 | 0.05 | 55 | 1023.6 |
| 20260508112400 | 9 | 183 | 4.8 | 11.3 | 0.00 | 0.08 | 0.05 | 56 | 1023.8 |
| 20260508111459 | 8 | 164 | 4.8 | 12.9 | 0.00 | 0.08 | 0.05 | 57 | 1023.6 |
| 20260508110559 | 8 | 160 | 4.8 | 12.9 | 0.00 | 0.08 | 0.05 | 56 | 1023.8 |
| 20260508105659 | 8 | 141 | 4.8 | 12.9 | 0.00 | 0.08 | 0.05 | 58 | 1023.6 |
| 20260508104759 | 8 | 162 | 4.8 | 11.3 | 0.00 | 0.08 | 0.05 | 58 | 1023.8 |
| 20260508103859 | 8 | 158 | 4.8 | 12.9 | 0.00 | 0.08 | 0.05 | 57 | 1023.8 |
| 20260508102959 | 8 | 184 | 3.2 | 8.0 | 0.00 | 0.08 | 0.05 | 61 | 1023.8 |
| 20260508102059 | 8 | 187 | 6.4 | 12.9 | 0.00 | 0.08 | 0.05 | 62 | 1023.8 |
| 20260508101159 | 8 | 194 | 4.8 | 12.9 | 0.00 | 0.08 | 0.05 | 61 | 1023.9 |
| 20260508094459 | 7 | 198 | 1.6 | 6.4 | 0.00 | 0.08 | 0.05 | 65 | 1024.0 |
| 20260508093559 | 7 | 200 | 1.6 | 4.8 | 0.00 | 0.08 | 0.05 | 67 | 1024.1 |
| 20260508092659 | 7 | 197 | 3.2 | 6.4 | 0.00 | 0.08 | 0.05 | 66 | 1024.0 |
| 20260508090859 | 7 | 191 | 1.6 | 4.8 | 0.00 | 0.08 | 0.05 | 66 | 1023.8 |
| 20260508085959 | 6 | 192 | 3.2 | 6.4 | 0.00 | 0.08 | 0.05 | 68 | 1023.8 |
| 20260508084159 | 6 | 191 | 4.8 | 12.9 | 0.00 | 0.08 | 0.05 | 68 | 1023.9 |
| 20260508083259 | 7 | 178 | 4.8 | 9.7 | 0.00 | 0.08 | 0.05 | 68 | 1023.9 |
| 20260508082359 | 7 | 186 | 4.8 | 11.3 | 0.00 | 0.08 | 0.05 | 68 | 1023.8 |
| 20260508081459 | 7 | 184 | 4.8 | 11.3 | 0.00 | 0.08 | 0.05 | 71 | 1023.8 |
| 20260508080559 | 6 | 188 | 4.8 | 8.0 | 0.00 | 0.08 | 0.05 | 73 | 1023.9 |
| 20260508075659 | 6 | 181 | 3.2 | 9.7 | 0.00 | 0.08 | 0.05 | 76 | 1023.8 |
| 20260508074759 | 6 | 142 | 4.8 | 14.5 | 0.00 | 0.08 | 0.05 | 78 | 1023.7 |
| 20260508073859 | 6 | 160 | 3.2 | 9.7 | 0.00 | 0.08 | 0.05 | 77 | 1023.6 |
| 20260508072959 | 6 | 137 | 4.8 | 11.3 | 0.00 | 0.08 | 0.05 | 78 | 1023.6 |
| 20260508065359 | 5 | 115 | 1.6 | 9.7 | 0.00 | 0.08 | 0.05 | 85 | 1023.5 |
| 20260508063559 | 4 | 115 | 4.8 | 11.3 | 0.00 | 0.08 | 0.05 | 87 | 1023.4 |
| 20260508062659 | 4 | 150 | 1.6 | 8.0 | 0.00 | 0.08 | 0.05 | 89 | 1023.3 |
| 20260508061759 | 4 | 131 | 4.8 | 9.7 | 0.00 | 0.08 | 0.05 | 90 | 1023.3 |
| 20260508060859 | 3 | 120 | 4.8 | 8.0 | 0.00 | 0.08 | 0.05 | 90 | 1023.2 |
| 20260508054158 | 3 | 83 | 1.6 | 4.8 | 0.00 | 0.08 | 0.05 | 92 | 1023.0 |
| 20260508052359 | 3 | 83 | 0.0 | 4.8 | 0.00 | 0.08 | 0.05 | 92 | 1022.9 |
| 20260508051458 | 3 | 82 | 1.6 | 3.2 | 0.00 | 0.08 | 0.05 | 93 | 1022.9 |
| 20260508050558 | 3 | 81 | 1.6 | 4.8 | 0.00 | 0.08 | 0.05 | 93 | 1022.8 |
| 20260508044759 | 2 | 78 | 1.6 | 4.8 | 0.00 | 0.08 | 0.05 | 93 | 1022.7 |
| 20260508043859 | 2 | 71 | 0.0 | 4.8 | 0.00 | 0.08 | 0.05 | 93 | 1022.6 |
| 20260508042959 | 2 | 67 | 0.0 | 4.8 | 0.00 | 0.08 | 0.05 | 93 | 1022.4 |
| 20260508042058 | 2 | 0 | 0.0 | 0.0 | 0.00 | 0.08 | 0.05 | 93 | 1022.5 |
| 20260508041159 | 2 | 64 | 0.0 | 4.8 | 0.00 | 0.08 | 0.05 | 93 | 1022.4 |
| 20260508040258 | 2 | 65 | 1.6 | 4.8 | 0.00 | 0.08 | 0.05 | 93 | 1022.4 |
| 20260508035358 | 2 | 53 | 3.2 | 6.4 | 0.03 | 0.08 | 0.05 | 93 | 1022.3 |
| 20260508033558 | 2 | 33 | 1.6 | 4.8 | 0.03 | 0.08 | 0.05 | 93 | 1022.4 |
| 20260508032658 | 1 | 31 | 1.6 | 4.8 | 0.05 | 0.08 | 0.05 | 93 | 1022.4 |
| 20260508031758 | 1 | 352 | 1.6 | 4.8 | 0.05 | 0.08 | 0.05 | 93 | 1022.3 |
| 20260508030858 | 1 | 326 | 1.6 | 4.8 | 0.05 | 0.08 | 0.05 | 93 | 1022.2 |
| 20260508025958 | 1 | 324 | 1.6 | 3.2 | 0.05 | 0.08 | 0.05 | 93 | 1022.1 |
| 20260508025058 | 1 | 324 | 0.0 | 3.2 | 0.03 | 0.05 | 0.05 | 93 | 1022.0 |
| 20260508024200 | 1 | 323 | 1.6 | 3.2 | 0.03 | 0.05 | 0.05 | 93 | 1022.1 |
| 20260508023258 | 1 | 322 | 1.6 | 4.8 | 0.00 | 0.05 | 0.03 | 93 | 1022.2 |
| 20260508021458 | 1 | 0 | 0.0 | 0.0 | 0.00 | 0.05 | 0.03 | 92 | 1022.0 |
| 20260508020558 | 1 | 340 | 0.0 | 3.2 | 0.00 | 0.05 | 0.03 | 92 | 1022.0 |
| 20260508015658 | 1 | 340 | 1.6 | 3.2 | 0.03 | 0.05 | 0.03 | 92 | 1022.0 |
| 20260508014758 | 1 | 340 | 1.6 | 3.2 | 0.03 | 0.05 | 0.03 | 92 | 1021.9 |
| 20260508013858 | 1 | 340 | 1.6 | 4.8 | 0.03 | 0.05 | 0.03 | 92 | 1021.9 |
| 20260508012958 | 1 | 330 | 3.2 | 6.4 | 0.03 | 0.05 | 0.03 | 92 | 1021.8 |
| 20260508005358 | 1 | 264 | 1.6 | 4.8 | 0.00 | 0.03 | 0.00 | 92 | 1021.5 |
| 20260508004458 | 1 | 264 | 0.0 | 3.2 | 0.00 | 0.03 | 0.00 | 92 | 1021.5 |
| 20260508002658 | 1 | 264 | 1.6 | 3.2 | 0.00 | 0.03 | 0.00 | 91 | 1021.0 |
| 20260508001758 | 2 | 264 | 3.2 | 4.8 | 0.00 | 0.03 | 0.00 | 91 | 1020.9 |
| 20260508000858 | 2 | 257 | 3.2 | 9.7 | 0.00 | 0.03 | 0.00 | 91 | 1020.9 |
| 20260507235958 | 2 | 239 | 4.8 | 8.0 | 0.00 | 0.03 | 0.00 | 92 | 1021.0 |
| 20260507235059 | 2 | 245 | 4.8 | 11.3 | 0.00 | 0.03 | 0.00 | 92 | 1020.9 |
| 20260507233258 | 1 | 280 | 6.4 | 14.5 | 0.00 | 0.03 | 0.00 | 92 | 1020.8 |
| 20260507232358 | 1 | 266 | 9.7 | 22.5 | 0.00 | 0.03 | 0.00 | 92 | 1020.7 |
| 20260507230558 | 1 | 256 | 19.3 | 30.6 | 0.00 | 0.03 | 0.00 | 91 | 1020.7 |
| 20260507225659 | 2 | 245 | 9.7 | 25.7 | 0.00 | 0.03 | 0.00 | 91 | 1020.8 |
| 20260507224758 | 2 | 77 | 3.2 | 6.4 | 0.00 | 0.03 | 0.00 | 91 | 1020.5 |
| 20260507223900 | 2 | 77 | 3.2 | 6.4 | 0.00 | 0.03 | 0.00 | 91 | 1020.3 |
| 20260507222959 | 2 | 77 | 3.2 | 6.4 | 0.00 | 0.03 | 0.00 | 90 | 1020.3 |
| 20260507222059 | 1 | 78 | 3.2 | 4.8 | 0.00 | 0.05 | 0.00 | 90 | 1020.3 |
| 20260507221158 | 2 | 78 | 3.2 | 6.4 | 0.00 | 0.05 | 0.00 | 90 | 1020.1 |
| 20260507220258 | 2 | 83 | 3.2 | 6.4 | 0.00 | 0.08 | 0.00 | 89 | 1020.1 |
| 20260507215358 | 2 | 84 | 1.6 | 4.8 | 0.00 | 0.08 | 0.08 | 89 | 1020.0 |
| 20260507214458 | 2 | 87 | 3.2 | 6.4 | 0.00 | 0.08 | 0.08 | 89 | 1020.0 |
| 20260507213558 | 2 | 0 | 0.0 | 0.0 | 0.00 | 0.08 | 0.08 | 90 | 1019.8 |
| 20260507212658 | 2 | 242 | 0.0 | 1.6 | 0.00 | 0.08 | 0.08 | 90 | 1019.7 |
| 20260507211757 | 2 | 241 | 0.0 | 3.2 | 0.00 | 0.08 | 0.08 | 90 | 1019.7 |
| 20260507210858 | 2 | 241 | 0.0 | 1.6 | 0.00 | 0.10 | 0.08 | 90 | 1019.6 |
| 20260507205957 | 2 | 0 | 0.0 | 0.0 | 0.00 | 0.10 | 0.08 | 90 | 1019.6 |
| 20260507205058 | 2 | 241 | 0.0 | 4.8 | 0.00 | 0.10 | 0.08 | 90 | 1019.4 |
| 20260507203257 | 2 | 0 | 0.0 | 0.0 | 0.00 | 0.13 | 0.08 | 89 | 1019.3 |
| 20260507202357 | 2 | 243 | 0.0 | 1.6 | 0.00 | 0.13 | 0.08 | 89 | 1019.2 |
| 20260507201457 | 3 | 244 | 0.0 | 3.2 | 0.00 | 0.13 | 0.08 | 89 | 1019.2 |
| 20260507200558 | 3 | 244 | 0.0 | 3.2 | 0.00 | 0.13 | 0.08 | 89 | 1019.2 |
| 20260507195657 | 3 | 244 | 0.0 | 1.6 | 0.00 | 0.13 | 0.08 | 89 | 1019.1 |
| 20260507194758 | 3 | 243 | 0.0 | 1.6 | 0.03 | 0.13 | 0.08 | 89 | 1019.1 |
| 20260507193857 | 3 | 238 | 1.6 | 4.8 | 0.03 | 0.13 | 0.08 | 89 | 1019.0 |
| 20260507192957 | 3 | 242 | 3.2 | 11.3 | 0.03 | 0.15 | 0.08 | 89 | 1018.9 |
| 20260507192058 | 3 | 248 | 4.8 | 11.3 | 0.03 | 0.15 | 0.08 | 89 | 1018.8 |
| 20260507191159 | 3 | 255 | 3.2 | 11.3 | 0.03 | 0.15 | 0.08 | 89 | 1018.8 |
| 20260507190257 | 3 | 265 | 4.8 | 12.9 | 0.03 | 0.15 | 0.08 | 90 | 1018.6 |
| 20260507184457 | 2 | 259 | 19.3 | 33.8 | 0.00 | 0.13 | 0.05 | 89 | 1018.7 |
| 20260507183557 | 3 | 251 | 16.1 | 33.8 | 0.00 | 0.13 | 0.05 | 87 | 1018.8 |
| 20260507182659 | 3 | 257 | 9.7 | 16.1 | 0.00 | 0.13 | 0.05 | 85 | 1018.5 |
| 20260507181757 | 3 | 256 | 9.7 | 16.1 | 0.00 | 0.13 | 0.05 | 85 | 1018.4 |
| 20260507180859 | 3 | 269 | 6.4 | 16.1 | 0.00 | 0.13 | 0.05 | 86 | 1018.3 |
| 20260507175959 | 3 | 263 | 6.4 | 14.5 | 0.00 | 0.13 | 0.05 | 86 | 1018.2 |
| 20260507175057 | 4 | 266 | 8.0 | 14.5 | 0.00 | 0.13 | 0.05 | 86 | 1018.1 |
| 20260507174157 | 4 | 258 | 14.5 | 29.0 | 0.00 | 0.15 | 0.05 | 86 | 1018.1 |
| 20260507173259 | 4 | 252 | 12.9 | 22.5 | 0.00 | 0.15 | 0.05 | 84 | 1018.0 |
| 20260507172357 | 4 | 254 | 14.5 | 22.5 | 0.00 | 0.15 | 0.05 | 84 | 1018.0 |
| 20260507171457 | 4 | 254 | 11.3 | 19.3 | 0.00 | 0.15 | 0.05 | 83 | 1018.0 |
| 20260507170557 | 5 | 255 | 12.9 | 20.9 | 0.00 | 0.15 | 0.05 | 82 | 1017.8 |
| 20260507165657 | 5 | 255 | 16.1 | 25.7 | 0.00 | 0.15 | 0.05 | 81 | 1017.8 |
| 20260507164757 | 5 | 260 | 14.5 | 27.4 | 0.00 | 0.15 | 0.05 | 81 | 1017.8 |
| 20260507163859 | 5 | 251 | 16.1 | 25.7 | 0.00 | 0.15 | 0.05 | 82 | 1017.7 |
| 20260507162959 | 5 | 252 | 16.1 | 24.1 | 0.00 | 0.15 | 0.05 | 84 | 1017.7 |
| 20260507162059 | 4 | 256 | 16.1 | 24.1 | 0.00 | 0.18 | 0.05 | 84 | 1017.7 |
| 20260507161157 | 5 | 254 | 14.5 | 25.7 | 0.00 | 0.23 | 0.05 | 84 | 1017.6 |
| 20260507155357 | 4 | 252 | 16.1 | 22.5 | 0.00 | 0.28 | 0.05 | 85 | 1017.7 |
| 20260507154457 | 4 | 253 | 17.7 | 29.0 | 0.00 | 0.28 | 0.05 | 85 | 1017.7 |
| 20260507153557 | 4 | 254 | 16.1 | 27.4 | 0.00 | 0.30 | 0.05 | 84 | 1017.6 |
| 20260507152657 | 3 | 258 | 16.1 | 29.0 | 0.00 | 0.30 | 0.05 | 85 | 1017.7 |
| 20260507151757 | 3 | 256 | 20.9 | 30.6 | 0.00 | 0.30 | 0.05 | 85 | 1017.7 |
| 20260507150857 | 3 | 257 | 19.3 | 32.2 | 0.00 | 0.30 | 0.05 | 85 | 1017.6 |
| 20260507145957 | 4 | 250 | 22.5 | 41.8 | 0.00 | 0.30 | 0.05 | 84 | 1017.5 |
| 20260507145057 | 5 | 247 | 17.7 | 33.8 | 0.00 | 0.30 | 0.05 | 81 | 1017.4 |
| 20260507143257 | 5 | 251 | 16.1 | 29.0 | 0.00 | 0.30 | 0.05 | 78 | 1017.3 |
| 20260507142357 | 5 | 248 | 16.1 | 27.4 | 0.00 | 0.30 | 0.05 | 80 | 1017.4 |
| 20260507140557 | 5 | 248 | 19.3 | 35.4 | 0.00 | 0.30 | 0.05 | 82 | 1017.3 |
| 20260507135657 | 5 | 249 | 17.7 | 35.4 | 0.00 | 0.30 | 0.05 | 82 | 1017.1 |
| 20260507133857 | 6 | 248 | 16.1 | 29.0 | 0.00 | 0.30 | 0.05 | 79 | 1016.9 |
| 20260507132957 | 6 | 244 | 16.1 | 24.1 | 0.00 | 0.30 | 0.05 | 79 | 1016.8 |
| 20260507132057 | 6 | 246 | 14.5 | 25.7 | 0.00 | 0.30 | 0.05 | 78 | 1016.8 |
| 20260507131157 | 6 | 242 | 12.9 | 19.3 | 0.00 | 0.30 | 0.05 | 80 | 1016.8 |
| 20260507130257 | 5 | 244 | 16.1 | 24.1 | 0.00 | 0.30 | 0.05 | 81 | 1016.7 |
| 20260507124457 | 6 | 244 | 12.9 | 20.9 | 0.00 | 0.30 | 0.05 | 79 | 1016.8 |
| 20260507123556 | 6 | 244 | 12.9 | 22.5 | 0.00 | 0.30 | 0.05 | 79 | 1016.9 |